Weather History for Tehachapi, CA

Change the Weather History Date:

Friday, October 25, 2013

  Actual Average Record
Temperature  
Mean Temperature 54 °F -  
Max Temperature 71 °F 68 °F 71 °F (2013)
Min Temperature 37 °F 39 °F 37 °F (2012)
Degree Days  
Heating Degree Days 11    
Growing Degree Days 4 (Base 50)    
Moisture  
Dew Point 32 °F    
Average Humidity 47    
Maximum Humidity 75    
Minimum Humidity 22    
Precipitation  
Precipitation 0.00 in - - ()
Sea Level Pressure  
Sea Level Pressure 30.20 in    
Wind  
Wind Speed 5 mph (NW)    
Max Wind Speed 15 mph    
Max Gust Speed 17 mph    
Visibility 7 miles    
Events      
Averages and records for this station are not official NWS values.
T = Trace of Precipitation, MM = Missing Value Source: NWS Daily Summary

Daily Weather History Graph

Daily Weather History Graph

Search for Another Location

Airport:

Trip Planner

Search our weather history database for the weather conditions in past years. The results will help you decide how hot, cold, wet, or windy it might be!

Date:

Astronomy

Oct. 25, 2013 Rise Set
Actual Time 7:08 AM PDT 6:06 PM PDT
Civil Twilight 6:42 AM PDT 6:32 PM PDT
Nautical Twilight 6:13 AM PDT 7:01 PM PDT
Astronomical Twilight 5:43 AM PDT 7:31 PM PDT
Moon 11:33 PM PDT (10/25) 12:48 PM PDT (10/25)
Length of Visible Light 11h 49m
Length of Day
10h 57m
Waning Gibbous, 61% of the Moon is Illuminated
Oct 25
Waning Gibbous
Oct 26
Last Quarter
Nov 3
New
Nov 9
First Quarter
Nov 17
Full

Hourly Weather History & Observations

Time (PDT) Temp. Windchill Dew Point Humidity Pressure Visibility Wind Dir Wind Speed Gust Speed Precip Events Conditions
12:15 AM 50.0 °F - 30.2 °F 47% 30.17 in 8.0 mi NW 4.6 mph - N/A   Clear
12:35 AM 46.4 °F - 30.2 °F 53% 30.17 in 9.0 mi Calm Calm - N/A   Clear
12:55 AM 50.0 °F - 30.2 °F 47% 30.17 in 8.0 mi WNW 4.6 mph - N/A   Clear
1:15 AM 48.2 °F - 30.2 °F 50% 30.18 in 8.0 mi WNW 4.6 mph - N/A   Clear
1:35 AM 48.2 °F - 32.0 °F 54% 30.18 in 8.0 mi NW 3.5 mph - N/A   Clear
1:55 AM 48.2 °F - 32.0 °F 54% 30.19 in 8.0 mi WNW 5.8 mph - N/A   Clear
2:15 AM 48.2 °F - 32.0 °F 54% 30.19 in 7.0 mi West 9.2 mph - N/A   Clear
2:35 AM 46.4 °F 42.4 °F 32.0 °F 57% 30.19 in 7.0 mi West 8.1 mph - N/A   Clear
2:55 AM 48.2 °F - 32.0 °F 54% 30.19 in 8.0 mi West 4.6 mph - N/A   Clear
3:15 AM 46.4 °F - 32.0 °F 57% 30.19 in 7.0 mi Calm Calm - N/A   Clear
3:35 AM 41.0 °F - 32.0 °F 70% 30.18 in 7.0 mi Calm Calm - N/A   Clear
3:55 AM 41.0 °F 38.0 °F 32.0 °F 70% 30.18 in 7.0 mi SE 4.6 mph - N/A   Clear
4:15 AM 41.0 °F 39.0 °F 32.0 °F 70% 30.18 in 7.0 mi ESE 3.5 mph - N/A   Clear
4:35 AM 39.2 °F - 30.2 °F 70% 30.18 in 7.0 mi Calm Calm - N/A   Clear
4:55 AM 39.2 °F 35.0 °F 30.2 °F 70% 30.18 in 6.0 mi ESE 5.8 mph - N/A   Haze
5:15 AM 39.2 °F - 32.0 °F 75% 30.19 in 6.0 mi Calm Calm - N/A   Haze
5:35 AM 41.0 °F - 32.0 °F 70% 30.19 in 6.0 mi Calm Calm - N/A   Haze
5:55 AM 37.4 °F 34.9 °F 30.2 °F 75% 30.19 in 6.0 mi SE 3.5 mph - N/A   Haze
6:15 AM 37.4 °F - 28.4 °F 70% 30.20 in 7.0 mi Calm Calm - N/A   Clear
6:35 AM 37.4 °F 33.8 °F 28.4 °F 70% 30.20 in 7.0 mi SE 4.6 mph - N/A   Clear
6:55 AM 37.4 °F - 30.2 °F 75% 30.20 in 5.0 mi Calm Calm - N/A   Haze
7:15 AM 37.4 °F - 30.2 °F 75% 30.21 in 4.0 mi Calm Calm - N/A   Haze
7:35 AM 37.4 °F - 28.4 °F 70% 30.21 in 4.0 mi Calm Calm - N/A   Haze
7:55 AM 39.2 °F - 28.4 °F 65% 30.22 in 5.0 mi Calm Calm - N/A   Haze
8:15 AM 44.6 °F - 32.0 °F 61% 30.22 in 5.0 mi Calm Calm - N/A   Haze
8:35 AM 46.4 °F - 32.0 °F 57% 30.23 in 5.0 mi Calm Calm - N/A   Haze
8:55 AM 50.0 °F - 33.8 °F 54% 30.23 in 5.0 mi Calm Calm - N/A   Haze
9:15 AM 53.6 °F - 32.0 °F 44% 30.24 in 5.0 mi Calm Calm - N/A   Haze
9:35 AM 57.2 °F - 32.0 °F 38% 30.24 in 5.0 mi Calm Calm - N/A   Haze
9:55 AM 60.8 °F - 33.8 °F 36% 30.23 in 5.0 mi Calm Calm - N/A   Haze
10:15 AM 62.6 °F - 28.4 °F 27% 30.23 in 6.0 mi Calm Calm - N/A   Haze
10:35 AM 66.2 °F - 32.0 °F 28% 30.23 in 7.0 mi Calm Calm - N/A   Clear
10:55 AM 66.2 °F - 32.0 °F 28% 30.23 in 6.0 mi WNW 4.6 mph - N/A   Haze
11:15 AM 68.0 °F - 32.0 °F 26% 30.22 in 5.0 mi West 4.6 mph - N/A   Haze
11:35 AM 71.6 °F - 30.2 °F 22% 30.22 in 6.0 mi NW 6.9 mph - N/A   Haze
11:55 AM 71.6 °F - 30.2 °F 22% 30.22 in 7.0 mi NW 9.2 mph - N/A   Clear
12:15 PM 71.6 °F - 30.2 °F 22% 30.22 in 6.0 mi NW 10.4 mph - N/A   Haze
12:35 PM 71.6 °F - 32.0 °F 23% 30.22 in 6.0 mi NW 13.8 mph - N/A   Haze
12:55 PM 71.6 °F - 32.0 °F 23% 30.21 in 5.0 mi NW 10.4 mph - N/A   Haze
1:15 PM 71.6 °F - 32.0 °F 23% 30.20 in 7.0 mi NW 13.8 mph - N/A   Clear
1:35 PM 71.6 °F - 32.0 °F 23% 30.20 in 6.0 mi NW 13.8 mph - N/A   Haze
1:55 PM 71.6 °F - 32.0 °F 23% 30.19 in 7.0 mi NW 13.8 mph - N/A   Clear
2:15 PM 69.8 °F - 32.0 °F 25% 30.19 in 7.0 mi NW 15.0 mph - N/A   Clear
2:35 PM 71.6 °F - 33.8 °F 25% 30.19 in 6.0 mi NW 11.5 mph 17.3 mph N/A   Haze
2:55 PM 71.6 °F - 33.8 °F 25% 30.19 in 6.0 mi NW 13.8 mph - N/A   Haze
3:15 PM 69.8 °F - 32.0 °F 25% 30.19 in 7.0 mi NW 13.8 mph - N/A   Clear
3:35 PM 68.0 °F - 33.8 °F 28% 30.19 in 6.0 mi NW 12.7 mph - N/A   Haze
3:55 PM 68.0 °F - 32.0 °F 26% 30.19 in 6.0 mi NW 11.5 mph - N/A   Haze
4:15 PM 68.0 °F - 32.0 °F 26% 30.19 in 6.0 mi NW 9.2 mph - N/A   Haze
4:35 PM 66.2 °F - 33.8 °F 30% 30.19 in 5.0 mi NW 10.4 mph - N/A   Haze
4:55 PM 64.4 °F - 35.6 °F 34% 30.19 in 5.0 mi NW 10.4 mph - N/A   Haze
5:15 PM 64.4 °F - 35.6 °F 34% 30.19 in 5.0 mi NW 10.4 mph - N/A   Haze
5:35 PM 62.6 °F - 35.6 °F 37% 30.19 in 5.0 mi NW 9.2 mph - N/A   Haze
5:55 PM 59.0 °F - 35.6 °F 42% 30.19 in 5.0 mi NW 8.1 mph - N/A   Haze
6:15 PM 59.0 °F - 37.4 °F 45% 30.20 in 5.0 mi NNW 8.1 mph - N/A   Haze
6:35 PM 57.2 °F - 37.4 °F 48% 30.20 in 5.0 mi WSW 3.5 mph - N/A   Haze
6:55 PM 57.2 °F - 37.4 °F 48% 30.20 in 6.0 mi Calm Calm - N/A   Haze
7:15 PM 53.6 °F - 37.4 °F 54% 30.20 in 6.0 mi ESE 4.6 mph - N/A   Haze
7:35 PM 53.6 °F - 35.6 °F 51% 30.20 in 6.0 mi East 4.6 mph - N/A   Haze
7:55 PM 48.2 °F - 32.0 °F 54% 30.21 in 7.0 mi SE 3.5 mph - N/A   Clear
8:15 PM 50.0 °F - 32.0 °F 50% 30.21 in 7.0 mi SSE 3.5 mph - N/A   Clear
8:35 PM 50.0 °F - 32.0 °F 50% 30.21 in 7.0 mi Calm Calm - N/A   Clear
8:55 PM 48.2 °F - 28.4 °F 46% 30.21 in 9.0 mi ESE 4.6 mph - N/A   Clear
9:15 PM 50.0 °F - 32.0 °F 50% 30.21 in 8.0 mi ESE 4.6 mph - N/A   Clear
9:35 PM 48.2 °F - 28.4 °F 46% 30.22 in 10.0 mi ESE 3.5 mph - N/A   Clear
9:55 PM 46.4 °F 45.2 °F 30.2 °F 53% 30.22 in 8.0 mi SE 3.5 mph - N/A   Clear
10:15 PM 46.4 °F - 28.4 °F 50% 30.22 in 10.0 mi Calm Calm - N/A   Clear
10:35 PM 44.6 °F - 30.2 °F 57% 30.22 in 8.0 mi Calm Calm - N/A   Clear
10:55 PM 44.6 °F - 28.4 °F 53% 30.22 in 9.0 mi North - - N/A   Clear
11:15 PM 44.6 °F - 26.6 °F 49% 30.22 in 10.0 mi North - - N/A   Clear
11:35 PM 44.6 °F - 28.4 °F 53% 30.22 in 9.0 mi North - - N/A   Clear
11:55 PM 44.6 °F - 26.6 °F 49% 30.22 in 10.0 mi North - - N/A   Clear